map of ABD home
ABD - Airport
Location
City:  Abadan, Khuzestan, Iran
ICAO:OIAA
IATA:ABD

Details
Type:Airport (Aerodrome, Airfield)
Use:Public/Civil
Latitude:3021'54"N (30.365000)
Longitude:4813'59"E (48.233056)
Elevation:19 ft (6 m)
Variation:3.72E (WMM2015 magnetic declination)
0.05 annual change
Runways:2
Longest:10174 × 148 ft (3101 × 45 m), paved

Time
Time Zone:UTC+3:30 (DST+4:30)
Local Time:

Weather
METAR:OIAA 281100Z 21008KT 9999 FEW035CB SCT040 OVC100 26/07 Q1016
TAF:OIAA 281100Z 2812/2918 03004MPS 5000 SHRA FEW030CB SCT035 OVC090
TEMPO 2812/1815 02009MPS PROB30 TS SCT035CB OVC090
BECMG 2820/2822 14004MPS 3000 SHRA BR FEW030CB SCT035 OVC090
BECMG 2904/2906 5000 SHRA FEW035CB SCT035 BKN100
BECMG 2908/2910 7000 FEW035 SCT090

Related Locations
Nearby:
Farthest:GMR: 11895 mi / 19143 km
Mangareva [Totegegie], Gambier Islands, PF

Find:

   beyond  
but within

Other Information
Maps:
NOTAMs:
Links:
Sources:

  
flag of Iran   

Sectional Chart

Flight Planning
at skyvector.com

Satellite Image

Google Maps Satellite view

 

Copyright © 2004-2017 Karl L. Swartz. All rights reserved.
The Great Circle Mapper name and logo are trademarks of the Great Circle Mapper.
All other trademarks mentioned herein belong to their respective owners.
Please see credits for attibutions and further copyright information.

  Follow gcmap on Facebook Follow gcmap on Twitter Follow gcmap on Google+ GCmap on LinkedIn

hCard Microformat

Geo Microformat